BER8SH EDDL-LIME

Flight info

Callsign BER8SH
Flight time 1h 17m
Altitude 30000
Route DODEN7Z DODEN Y852 TUSUK DCT ULNOK L607 ABUKA DCT KRH DCT NATOR DCT TRA DCT RIPUS DCT GERSA DCT SOSON DCT ODINA
Aircraft A320/M-SDE3FGHIRWY/LB1

Departure

Time 2026-05-06 11:06
Airport Düsseldorf Airport (EDDL)

Arrival

Time 2026-05-06 12:23
Airport Il Caravaggio International Airport (LIME)
Time Latitude Longitude Altitude Speed Heading
2026-05-06 10:42 51.27942 6.76182 128 ft 0 kts 91°
2026-05-06 10:57 51.27942 6.76181 128 ft 1 kts 91°
2026-05-06 10:57 51.27942 6.76143 126 ft 4 kts 88°
2026-05-06 10:57 51.27940 6.76100 126 ft 4 kts 79°
2026-05-06 10:58 51.27932 6.76060 125 ft 4 kts 46°
2026-05-06 10:58 51.27920 6.76048 126 ft 0 kts
2026-05-06 11:01 51.27923 6.76048 125 ft 1 kts
2026-05-06 11:01 51.27940 6.76049 127 ft 4 kts
2026-05-06 11:01 51.27976 6.76048 128 ft 6 kts 356°
2026-05-06 11:02 51.28032 6.76049 124 ft 10 kts
2026-05-06 11:02 51.28093 6.76040 129 ft 9 kts 330°
2026-05-06 11:02 51.28101 6.75965 125 ft 7 kts 239°
2026-05-06 11:02 51.28075 6.75907 127 ft 6 kts 233°
2026-05-06 11:03 51.28051 6.75858 127 ft 5 kts 233°
2026-05-06 11:03 51.28033 6.75819 125 ft 4 kts 233°
2026-05-06 11:03 51.28016 6.75782 129 ft 6 kts 233°
2026-05-06 11:03 51.27983 6.75712 127 ft 10 kts 233°
2026-05-06 11:04 51.27935 6.75612 129 ft 11 kts 233°
2026-05-06 11:04 51.27889 6.75514 124 ft 11 kts 234°
2026-05-06 11:04 51.27845 6.75416 123 ft 11 kts 238°
2026-05-06 11:04 51.27869 6.75324 125 ft 11 kts 328°
2026-05-06 11:05 51.27947 6.75268 121 ft 13 kts 342°
2026-05-06 11:05 51.28024 6.75328 124 ft 13 kts 53°
2026-05-06 11:05 51.28099 6.75491 123 ft 29 kts 52°
2026-05-06 11:05 51.28345 6.76002 129 ft 92 kts 53°
2026-05-06 11:06 51.28861 6.77071 132 ft 148 kts 51°
2026-05-06 11:06 51.29511 6.78434 578 ft 157 kts 50°
2026-05-06 11:06 51.30162 6.79826 1250 ft 155 kts 52°
2026-05-06 11:06 51.30811 6.81204 1997 ft 158 kts 52°
2026-05-06 11:07 51.31514 6.82695 2444 ft 179 kts 53°
2026-05-06 11:07 51.32307 6.84374 2763 ft 199 kts 53°
2026-05-06 11:07 51.33181 6.86220 3078 ft 220 kts 53°
2026-05-06 11:07 51.34124 6.88270 3438 ft 244 kts 55°
2026-05-06 11:08 51.35049 6.90715 3971 ft 262 kts 72°
2026-05-06 11:08 51.35238 6.93585 4698 ft 269 kts 97°
2026-05-06 11:08 51.34984 6.96547 5038 ft 271 kts 101°
2026-05-06 11:08 51.34676 6.99534 5952 ft 272 kts 101°
2026-05-06 11:09 51.34355 7.02532 6871 ft 274 kts 101°
2026-05-06 11:09 51.34031 7.05551 7758 ft 277 kts 101°
2026-05-06 11:09 51.33708 7.08606 8598 ft 281 kts 102°
2026-05-06 11:09 51.33388 7.11707 9445 ft 284 kts 101°
2026-05-06 11:10 51.33016 7.14823 10205 ft 287 kts 108°
2026-05-06 11:10 51.32262 7.17782 10858 ft 293 kts 120°
2026-05-06 11:10 51.31033 7.20513 11077 ft 314 kts 135°
2026-05-06 11:10 51.29417 7.23051 11259 ft 337 kts 137°
2026-05-06 11:11 51.27685 7.25750 11419 ft 360 kts 137°
2026-05-06 11:11 51.25849 7.28622 11752 ft 375 kts 137°
2026-05-06 11:11 51.23973 7.31571 12350 ft 381 kts 137°
2026-05-06 11:11 51.22074 7.34565 12971 ft 386 kts 137°
2026-05-06 11:12 51.20151 7.37598 13599 ft 391 kts 137°
2026-05-06 11:12 51.18209 7.40661 14167 ft 394 kts 137°
2026-05-06 11:12 51.16250 7.43747 14757 ft 397 kts 137°
2026-05-06 11:12 51.14271 7.46845 15344 ft 400 kts 137°
2026-05-06 11:13 51.12267 7.49939 15923 ft 403 kts 137°
2026-05-06 11:13 51.10232 7.53049 16499 ft 407 kts 138°
2026-05-06 11:13 51.08178 7.56166 17090 ft 410 kts 138°
2026-05-06 11:13 51.06099 7.59312 17678 ft 413 kts 138°
2026-05-06 11:14 51.04036 7.62436 18189 ft 417 kts 138°
2026-05-06 11:14 51.01932 7.65627 18646 ft 419 kts 138°
2026-05-06 11:14 50.99819 7.68836 19106 ft 422 kts 138°
2026-05-06 11:14 50.97688 7.72056 19574 ft 424 kts 139°
2026-05-06 11:15 50.95362 7.74939 20018 ft 425 kts 148°
2026-05-06 11:15 50.92856 7.77433 20476 ft 427 kts 149°
2026-05-06 11:15 50.90323 7.79930 20913 ft 429 kts 149°
2026-05-06 11:15 50.87783 7.82422 21316 ft 431 kts 150°
2026-05-06 11:16 50.85223 7.84934 21707 ft 433 kts 150°
2026-05-06 11:16 50.82650 7.87452 22086 ft 435 kts 150°
2026-05-06 11:16 50.80068 7.89979 22458 ft 437 kts 150°
2026-05-06 11:16 50.77474 7.92523 22835 ft 439 kts 150°
2026-05-06 11:17 50.74871 7.95074 23194 ft 441 kts 150°
2026-05-06 11:17 50.72254 7.97633 23510 ft 443 kts 150°
2026-05-06 11:17 50.69623 8.00200 23802 ft 445 kts 150°
2026-05-06 11:17 50.66987 8.02766 24088 ft 447 kts 150°
2026-05-06 11:18 50.64337 8.05341 24369 ft 448 kts 151°
2026-05-06 11:18 50.61562 8.07571 24652 ft 447 kts 160°
2026-05-06 11:18 50.58658 8.09099 24918 ft 446 kts 168°
2026-05-06 11:18 50.55601 8.09957 25173 ft 446 kts 176°
2026-05-06 11:19 50.52502 8.10381 25432 ft 446 kts 177°
2026-05-06 11:19 50.49402 8.10788 25684 ft 448 kts 177°
2026-05-06 11:19 50.46293 8.11190 25920 ft 449 kts 177°
2026-05-06 11:19 50.43183 8.11587 26146 ft 449 kts 177°
2026-05-06 11:20 50.40063 8.11992 26482 ft 447 kts 177°
2026-05-06 11:20 50.36966 8.12398 26799 ft 446 kts 177°
2026-05-06 11:20 50.33917 8.12800 27129 ft 445 kts 177°
2026-05-06 11:20 50.30797 8.13210 27462 ft 443 kts 177°
2026-05-06 11:21 50.27770 8.13603 27805 ft 442 kts 177°
2026-05-06 11:21 50.24711 8.13998 28177 ft 440 kts 178°
2026-05-06 11:21 50.21665 8.14387 28548 ft 438 kts 178°
2026-05-06 11:21 50.18636 8.14777 28927 ft 436 kts 177°
2026-05-06 11:22 50.15631 8.15473 29330 ft 437 kts 170°
2026-05-06 11:22 50.12716 8.16829 29700 ft 438 kts 162°
2026-05-06 11:22 50.09933 8.18811 29797 ft 441 kts 154°
2026-05-06 11:23 50.04647 8.23707 29806 ft 441 kts 153°
2026-05-06 11:23 49.99377 8.28588 29801 ft 440 kts 153°
2026-05-06 11:24 49.94137 8.33397 29800 ft 439 kts 153°
2026-05-06 11:24 49.88876 8.38221 29798 ft 439 kts 153°
2026-05-06 11:25 49.83797 8.43513 29779 ft 444 kts 142°
2026-05-06 11:25 49.80020 8.49014 29777 ft 445 kts 141°
2026-05-06 11:26 49.75507 8.55553 29777 ft 443 kts 143°
2026-05-06 11:26 49.70382 8.60574 29784 ft 433 kts 161°
2026-05-06 11:27 49.64654 8.62907 29796 ft 428 kts 172°
2026-05-06 11:27 49.58810 8.64522 29793 ft 428 kts 172°
2026-05-06 11:28 49.52954 8.66154 29802 ft 428 kts 172°
2026-05-06 11:28 49.47086 8.67557 29795 ft 425 kts 179°
2026-05-06 11:29 49.41216 8.66882 29796 ft 423 kts 188°
2026-05-06 11:29 49.35363 8.65689 29788 ft 424 kts 188°
2026-05-06 11:30 49.29517 8.64500 29792 ft 424 kts 188°
2026-05-06 11:30 49.23664 8.63312 29784 ft 424 kts 188°
2026-05-06 11:31 49.17800 8.62138 29791 ft 425 kts 188°
2026-05-06 11:31 49.11936 8.60972 29785 ft 425 kts 188°
2026-05-06 11:32 49.06070 8.59801 29791 ft 426 kts 188°
2026-05-06 11:32 49.00191 8.58630 29788 ft 426 kts 188°
2026-05-06 11:33 48.94345 8.57107 29795 ft 426 kts 192°
2026-05-06 11:33 48.88561 8.55116 29799 ft 426 kts 193°
2026-05-06 11:34 48.82774 8.53094 29797 ft 427 kts 193°
2026-05-06 11:34 48.76967 8.51200 29979 ft 427 kts 192°
2026-05-06 11:34 48.74046 8.50273 29829 ft 429 kts 192°
2026-05-06 11:35 48.71133 8.49346 29798 ft 428 kts 192°
2026-05-06 11:35 48.65333 8.47504 29787 ft 428 kts 192°
2026-05-06 11:36 48.59457 8.45621 29789 ft 429 kts 192°
2026-05-06 11:36 48.53621 8.43742 29793 ft 429 kts 192°
2026-05-06 11:37 48.47778 8.41877 29805 ft 429 kts 192°
2026-05-06 11:37 48.41943 8.40021 29813 ft 428 kts 192°
2026-05-06 11:38 48.36136 8.38183 29827 ft 427 kts 192°
2026-05-06 11:38 48.30300 8.36341 29835 ft 426 kts 193°
2026-05-06 11:39 48.24504 8.34516 29836 ft 425 kts 192°
2026-05-06 11:39 48.18751 8.32815 29845 ft 424 kts 187°
2026-05-06 11:40 48.12869 8.33139 29843 ft 426 kts 173°
2026-05-06 11:40 48.07035 8.34570 29844 ft 424 kts 173°
2026-05-06 11:41 48.01207 8.35983 29843 ft 423 kts 173°
2026-05-06 11:41 47.95401 8.37388 29844 ft 422 kts 173°
2026-05-06 11:42 47.89744 8.38752 29853 ft 421 kts 173°
2026-05-06 11:42 47.83940 8.40144 29849 ft 420 kts 173°
2026-05-06 11:43 47.78213 8.41517 29845 ft 419 kts 174°
2026-05-06 11:43 47.72456 8.42899 29846 ft 419 kts 174°
2026-05-06 11:44 47.63826 8.44666 29838 ft 416 kts 178°
2026-05-06 11:44 47.58060 8.45415 29834 ft 415 kts 178°
2026-05-06 11:45 47.52303 8.46167 29829 ft 415 kts 178°
2026-05-06 11:45 47.46557 8.47004 29829 ft 415 kts 178°
2026-05-06 11:46 47.40820 8.47864 29835 ft 414 kts 178°
2026-05-06 11:46 47.35108 8.48706 29836 ft 413 kts 178°
2026-05-06 11:47 47.29382 8.49542 29849 ft 413 kts 179°
2026-05-06 11:47 47.23665 8.50370 29849 ft 412 kts 179°
2026-05-06 11:48 47.17956 8.51189 29846 ft 412 kts 179°
2026-05-06 11:48 47.12254 8.52013 29841 ft 411 kts 179°
2026-05-06 11:49 47.06553 8.52853 29864 ft 411 kts 179°
2026-05-06 11:49 47.00862 8.53688 29856 ft 411 kts 179°
2026-05-06 11:50 46.95174 8.54500 29849 ft 410 kts 179°
2026-05-06 11:50 46.89531 8.55303 29847 ft 410 kts 179°
2026-05-06 11:51 46.83862 8.56116 29843 ft 409 kts 179°
2026-05-06 11:51 46.78184 8.56937 29841 ft 410 kts 179°
2026-05-06 11:52 46.72497 8.57763 29851 ft 410 kts 179°
2026-05-06 11:52 46.66822 8.58580 29846 ft 409 kts 179°
2026-05-06 11:53 46.61154 8.59378 29845 ft 409 kts 179°
2026-05-06 11:53 46.55489 8.60181 29846 ft 409 kts 179°
2026-05-06 11:54 46.49816 8.60983 29855 ft 409 kts 179°
2026-05-06 11:54 46.44148 8.61774 29854 ft 409 kts 179°
2026-05-06 11:55 46.38489 8.62579 29840 ft 408 kts 179°
2026-05-06 11:55 46.32837 8.63374 29843 ft 408 kts 180°
2026-05-06 11:56 46.27204 8.64172 29845 ft 406 kts 180°
2026-05-06 11:56 46.21605 8.64957 29855 ft 407 kts 180°
2026-05-06 11:57 46.15972 8.65764 29845 ft 408 kts 177°
2026-05-06 11:57 46.10520 8.68513 29838 ft 428 kts 156°
2026-05-06 11:58 46.08104 8.71110 29839 ft 440 kts 145°
2026-05-06 11:58 46.06030 8.74424 29835 ft 451 kts 137°
2026-05-06 11:58 46.02139 8.81455 29831 ft 451 kts 137°
2026-05-06 11:59 45.98242 8.88442 29826 ft 451 kts 137°
2026-05-06 11:59 45.94302 8.95472 29829 ft 452 kts 137°
2026-05-06 12:00 45.90356 9.02509 29832 ft 452 kts 137°
2026-05-06 12:00 45.86408 9.09537 29836 ft 453 kts 137°
2026-05-06 12:01 45.82445 9.16563 29825 ft 453 kts 137°
2026-05-06 12:01 45.78470 9.23581 29877 ft 454 kts 137°
2026-05-06 12:02 45.74493 9.30607 29935 ft 455 kts 137°
2026-05-06 12:02 45.70492 9.37662 29985 ft 456 kts 138°
2026-05-06 12:03 45.66491 9.44688 30020 ft 455 kts 138°
2026-05-06 12:03 45.62469 9.51720 29678 ft 458 kts 138°
2026-05-06 12:04 45.60451 9.55245 29387 ft 459 kts 138°
2026-05-06 12:04 45.58436 9.58769 28826 ft 458 kts 138°
2026-05-06 12:04 45.56403 9.62318 27500 ft 463 kts 137°
2026-05-06 12:04 45.54357 9.65877 26227 ft 466 kts 137°
2026-05-06 12:05 45.52292 9.69464 24978 ft 469 kts 136°
2026-05-06 12:05 45.50226 9.73051 23898 ft 471 kts 136°
2026-05-06 12:05 45.48187 9.76610 23426 ft 449 kts 136°
2026-05-06 12:05 45.46177 9.79800 23186 ft 417 kts 146°
2026-05-06 12:06 45.43902 9.82108 23034 ft 390 kts 159°
2026-05-06 12:06 45.41482 9.83543 22954 ft 365 kts 171°
2026-05-06 12:06 45.39066 9.84209 22798 ft 344 kts 181°
2026-05-06 12:06 45.36733 9.84301 22650 ft 328 kts 185°
2026-05-06 12:07 45.34486 9.84459 22466 ft 322 kts 174°
2026-05-06 12:07 45.32443 9.85759 22328 ft 329 kts 149°
2026-05-06 12:07 45.31020 9.88339 22192 ft 341 kts 121°
2026-05-06 12:07 45.30271 9.91476 22024 ft 338 kts 113°
2026-05-06 12:08 45.29959 9.94811 21729 ft 345 kts 95°
2026-05-06 12:08 45.30195 9.98202 21387 ft 347 kts 89°
2026-05-06 12:08 45.30471 10.01594 21048 ft 345 kts 87°
2026-05-06 12:08 45.31042 10.04914 20721 ft 348 kts 73°
2026-05-06 12:09 45.32010 10.08068 20379 ft 348 kts 69°
2026-05-06 12:09 45.33038 10.11183 19931 ft 351 kts 63°
2026-05-06 12:09 45.34463 10.14008 19316 ft 352 kts 47°
2026-05-06 12:09 45.36179 10.16470 18754 ft 349 kts 46°
2026-05-06 12:10 45.37922 10.18822 18229 ft 345 kts 38°
2026-05-06 12:10 45.39938 10.20609 17655 ft 339 kts 21°
2026-05-06 12:10 45.42185 10.21253 17073 ft 324 kts 350°
2026-05-06 12:10 45.44242 10.20329 16514 ft 302 kts 317°
2026-05-06 12:11 45.45586 10.18233 16091 ft 280 kts 289°
2026-05-06 12:11 45.46109 10.15681 15700 ft 269 kts 273°
2026-05-06 12:11 45.46510 10.13026 15286 ft 272 kts 278°
2026-05-06 12:11 45.46840 10.11309 15025 ft 272 kts 279°
2026-05-06 12:12 45.47556 10.07879 14507 ft 272 kts 280°
2026-05-06 12:12 45.48098 10.05299 14123 ft 272 kts 280°
2026-05-06 12:12 45.48628 10.02719 13741 ft 271 kts 279°
2026-05-06 12:12 45.49144 10.00143 13316 ft 269 kts 279°
2026-05-06 12:13 45.49484 9.98423 13003 ft 264 kts 279°
2026-05-06 12:13 45.50018 9.95951 12586 ft 262 kts 287°
2026-05-06 12:13 45.50759 9.93571 12192 ft 263 kts 288°
2026-05-06 12:13 45.51489 9.91214 11781 ft 263 kts 288°
2026-05-06 12:14 45.52227 9.88820 11398 ft 265 kts 288°
2026-05-06 12:14 45.52969 9.86413 10987 ft 262 kts 288°
2026-05-06 12:14 45.53695 9.84070 10590 ft 254 kts 288°
2026-05-06 12:14 45.54402 9.81792 10206 ft 248 kts 288°
2026-05-06 12:15 45.55092 9.79552 9859 ft 245 kts 288°
2026-05-06 12:15 45.55769 9.77343 9514 ft 245 kts 288°
2026-05-06 12:15 45.56448 9.75122 9144 ft 246 kts 288°
2026-05-06 12:15 45.57134 9.72888 8784 ft 245 kts 289°
2026-05-06 12:16 45.57814 9.70678 8451 ft 240 kts 288°
2026-05-06 12:16 45.58469 9.68544 8143 ft 230 kts 288°
2026-05-06 12:16 45.59098 9.66489 7832 ft 221 kts 288°
2026-05-06 12:16 45.59706 9.64511 7532 ft 213 kts 288°
2026-05-06 12:17 45.60292 9.62603 7244 ft 205 kts 288°
2026-05-06 12:17 45.60842 9.60810 7002 ft 196 kts 288°
2026-05-06 12:17 45.61376 9.59053 6880 ft 191 kts 288°
2026-05-06 12:17 45.61903 9.57319 6579 ft 190 kts 288°
2026-05-06 12:18 45.62428 9.55592 6277 ft 190 kts 288°
2026-05-06 12:18 45.62952 9.53864 5963 ft 190 kts 288°
2026-05-06 12:18 45.63493 9.52155 5656 ft 189 kts 296°
2026-05-06 12:18 45.64419 9.50857 5344 ft 188 kts 329°
2026-05-06 12:19 45.65665 9.50408 5035 ft 186 kts
2026-05-06 12:19 45.66868 9.50893 4738 ft 175 kts 33°
2026-05-06 12:19 45.67694 9.52036 4422 ft 160 kts 63°
2026-05-06 12:19 45.68207 9.53396 3959 ft 154 kts 67°
2026-05-06 12:20 45.68689 9.54764 3566 ft 153 kts 76°
2026-05-06 12:20 45.68866 9.56208 3263 ft 143 kts 96°
2026-05-06 12:20 45.68799 9.57602 2928 ft 140 kts 98°
2026-05-06 12:20 45.68725 9.58967 2626 ft 135 kts 98°
2026-05-06 12:21 45.68621 9.60292 2392 ft 134 kts 99°
2026-05-06 12:21 45.68444 9.61599 2161 ft 134 kts 105°
2026-05-06 12:21 45.68181 9.62876 1897 ft 134 kts 105°
2026-05-06 12:21 45.67944 9.64151 1649 ft 134 kts 104°
2026-05-06 12:22 45.67747 9.65444 1428 ft 132 kts 102°
2026-05-06 12:22 45.67520 9.66722 1270 ft 134 kts 105°
2026-05-06 12:22 45.67265 9.68006 1020 ft 132 kts 104°
2026-05-06 12:22 45.67047 9.69294 819 ft 134 kts 104°
2026-05-06 12:23 45.66823 9.70496 787 ft 106 kts 105°
2026-05-06 12:23 45.66682 9.71269 787 ft 56 kts 104°
2026-05-06 12:23 45.66609 9.71639 787 ft 32 kts 106°
2026-05-06 12:23 45.66568 9.71859 787 ft 17 kts 103°
2026-05-06 12:24 45.66489 9.71874 787 ft 15 kts 238°
2026-05-06 12:24 45.66460 9.71749 787 ft 12 kts 255°
2026-05-06 12:24 45.66453 9.71641 787 ft 10 kts 253°
2026-05-06 12:24 45.66443 9.71546 787 ft 9 kts 271°
2026-05-06 12:25 45.66454 9.71466 787 ft 8 kts 290°
2026-05-06 12:25 45.66468 9.71399 787 ft 6 kts 283°
2026-05-06 12:25 45.66482 9.71317 787 ft 11 kts 283°
2026-05-06 12:25 45.66507 9.71196 787 ft 15 kts 291°
2026-05-06 12:26 45.66550 9.71038 787 ft 19 kts 286°
2026-05-06 12:26 45.66589 9.70827 787 ft 24 kts 284°
2026-05-06 12:26 45.66637 9.70572 787 ft 29 kts 285°
2026-05-06 12:26 45.66688 9.70289 787 ft 27 kts 284°
2026-05-06 12:27 45.66722 9.70106 787 ft 9 kts 284°
2026-05-06 12:27 45.66734 9.70040 787 ft 0 kts 284°
2026-05-06 12:27 45.66730 9.70027 787 ft 2 kts 218°
2026-05-06 12:27 45.66703 9.70015 787 ft 6 kts 194°
2026-05-06 12:28 45.66655 9.69997 787 ft 5 kts 195°
2026-05-06 12:28 45.66636 9.69990 787 ft 0 kts 194°